GW0058 Weather Reports


Display with metric or nautical units.
time (UTC)temp
F
wind
direction
speed
MPH
gust
MPH
rain 1hr
in
rain 24hr
in
rain mn
in
humidity
%
barometer
mb
20260905010547 85 101 0.0 8.0 0.00 0.00 0.00 62 1013.9
20260905010112 85 0 2.0 8.0 0.00 0.00 0.00 62 1013.9
20260905005546 85 165 2.0 8.0 0.00 0.00 0.00 62 1013.8
20260905005047 85 180 3.0 8.0 0.00 0.00 0.00 62 1013.8
20260905004553 86 111 1.0 8.0 0.00 0.00 0.00 62 1013.8
20260905004046 86 151 1.0 6.0 0.00 0.00 0.00 61 1013.8
20260905003546 87 78 1.0 6.0 0.00 0.00 0.00 59 1013.8
20260905003110 87 144 2.0 7.0 0.00 0.00 0.00 55 1013.7
20260905002545 87 155 2.0 7.0 0.00 0.00 0.00 52 1013.6
20260905002050 87 180 1.0 4.0 0.00 0.00 0.00 51 1013.5
20260905001558 88 145 1.0 10.0 0.00 0.00 0.00 51 1013.4
20260905001046 88 145 1.0 10.0 0.00 0.00 0.00 50 1013.3
20260905000547 89 167 4.0 10.0 0.00 0.00 0.00 49 1013.3
20260905000111 89 128 1.0 9.0 0.00 0.00 0.00 47 1013.1
20260904235546 89 163 4.0 9.0 0.00 0.00 0.00 46 1013.2
20260904235046 89 182 4.0 8.0 0.00 0.00 0.00 44 1013.2
20260904234555 90 178 3.0 8.0 0.00 0.00 0.00 41 1013.2
20260904234046 90 110 3.0 10.0 0.00 0.00 0.00 38 1013.1
20260904233548 90 178 4.0 10.0 0.00 0.00 0.00 37 1013.0
20260904233101 90 148 3.0 10.0 0.00 0.00 0.00 39 1013.0
20260904232546 90 101 4.0 10.0 0.00 0.00 0.00 41 1013.0
20260904232050 91 167 4.0 10.0 0.00 0.00 0.00 43 1013.1
20260904231558 91 74 3.0 10.0 0.00 0.00 0.00 44 1013.1
20260904231050 91 161 3.0 7.0 0.00 0.00 0.00 45 1013.3
20260904230550 91 174 2.0 10.0 0.00 0.00 0.00 45 1013.3
20260904230111 91 94 2.0 10.0 0.00 0.00 0.00 46 1013.2
20260904225547 90 120 3.0 9.0 0.00 0.00 0.00 51 1013.3
20260904225046 90 135 4.0 9.0 0.00 0.00 0.00 52 1013.4
20260904224555 91 153 3.0 10.0 0.00 0.00 0.00 51 1013.4
20260904224047 91 78 3.0 10.0 0.00 0.00 0.00 50 1013.3
20260904223546 90 86 4.0 9.0 0.00 0.00 0.00 52 1013.5
20260904223102 91 87 4.0 11.0 0.00 0.00 0.00 51 1013.6
20260904222549 90 183 4.0 11.0 0.00 0.00 0.00 53 1013.6
20260904222046 91 140 3.0 8.0 0.00 0.00 0.00 52 1013.6
20260904221606 90 156 2.0 9.0 0.00 0.00 0.00 55 1013.7
20260904221046 90 142 4.0 9.0 0.00 0.00 0.00 56 1013.7
20260904220548 91 84 4.0 8.0 0.00 0.00 0.00 55 1013.6
20260904220104 90 152 3.0 10.0 0.00 0.00 0.00 55 1013.6
20260904215546 92 169 3.0 10.0 0.00 0.00 0.00 53 1013.6
20260904215047 91 115 3.0 10.0 0.00 0.00 0.00 54 1013.7
20260904214558 91 132 4.0 13.0 0.00 0.00 0.00 53 1013.6
20260904214046 91 84 5.0 13.0 0.00 0.00 0.00 52 1013.7
20260904213546 90 140 5.0 11.0 0.00 0.00 0.00 54 1013.8
20260904213100 90 177 5.0 11.0 0.00 0.00 0.00 54 1013.9
20260904212550 90 164 4.0 10.0 0.00 0.00 0.00 55 1013.9
20260904212050 90 175 4.0 10.0 0.00 0.00 0.00 56 1013.9
20260904211555 89 135 4.0 10.0 0.00 0.00 0.00 56 1014.0
20260904211046 89 163 5.0 10.0 0.00 0.00 0.00 58 1014.1
20260904210546 89 148 5.0 10.0 0.00 0.00 0.00 59 1014.2
20260904210101 89 150 2.0 9.0 0.00 0.00 0.00 58 1014.3
20260904205547 88 132 2.0 8.0 0.00 0.00 0.00 59 1014.3
20260904205046 89 150 1.0 10.0 0.00 0.00 0.00 58 1014.3
20260904204600 88 59 4.0 10.0 0.00 0.00 0.00 58 1014.5
20260904204050 89 182 2.0 8.0 0.00 0.00 0.00 58 1014.5
20260904203550 88 142 3.0 12.0 0.00 0.00 0.00 56 1014.5
20260904203057 89 170 5.0 12.0 0.00 0.00 0.00 57 1014.5
20260904202546 89 118 1.0 11.0 0.00 0.00 0.00 56 1014.5
20260904202046 90 133 3.0 11.0 0.00 0.00 0.00 54 1014.6
20260904201607 90 126 5.0 11.0 0.00 0.00 0.00 52 1014.6
20260904201046 90 171 3.0 11.0 0.00 0.00 0.00 55 1014.6
20260904200546 89 117 6.0 11.0 0.00 0.00 0.00 53 1014.6
20260904200104 89 103 5.0 12.0 0.00 0.00 0.00 54 1014.6
20260904195547 89 136 5.0 12.0 0.00 0.00 0.00 54 1014.7
20260904195049 90 180 6.0 11.0 0.00 0.00 0.00 58 1014.8
20260904194558 89 190 4.0 11.0 0.00 0.00 0.00 60 1014.9
20260904194050 89 164 4.0 11.0 0.00 0.00 0.00 59 1014.9
20260904193550 89 176 4.0 10.0 0.00 0.00 0.00 57 1015.0
20260904193058 90 185 3.0 10.0 0.00 0.00 0.00 55 1015.0
20260904192546 89 144 3.0 8.0 0.00 0.00 0.00 55 1015.0
20260904192050 89 164 3.0 8.0 0.00 0.00 0.00 57 1015.1
20260904191553 90 183 3.0 8.0 0.00 0.00 0.00 59 1015.3
20260904191049 88 149 4.0 7.0 0.00 0.00 0.00 62 1015.3
20260904190550 87 138 2.0 9.0 0.00 0.00 0.00 64 1015.3
20260904185546 87 161 4.0 9.0 0.00 0.00 0.00 64 1015.5
20260904185048 87 123 3.0 11.0 0.00 0.00 0.00 64 1015.6
20260904184559 87 131 3.0 11.0 0.00 0.00 0.00 63 1015.6
20260904184049 87 150 3.0 9.0 0.00 0.00 0.00 63 1015.6
20260904183548 87 105 3.0 10.0 0.00 0.00 0.00 66 1015.7
20260904183113 87 167 4.0 10.0 0.00 0.00 0.00 65 1015.7
20260904182546 87 130 4.0 9.0 0.00 0.00 0.00 66 1015.8
20260904182047 86 126 3.0 10.0 0.00 0.00 0.00 67 1015.9
20260904181559 86 155 3.0 10.0 0.00 0.00 0.00 66 1015.9
20260904181046 86 165 4.0 8.0 0.00 0.00 0.00 68 1015.9
20260904180547 86 150 3.0 8.0 0.00 0.00 0.00 67 1016.0
20260904175548 86 104 5.0 12.0 0.00 0.00 0.00 68 1016.1
20260904175048 86 121 2.0 10.0 0.00 0.00 0.00 68 1016.1
20260904174601 86 214 3.0 10.0 0.00 0.00 0.00 68 1016.1
20260904174047 85 182 4.0 10.0 0.00 0.00 0.00 68 1016.1
20260904173548 85 132 2.0 8.0 0.00 0.00 0.00 69 1016.1
20260904173101 85 173 3.0 8.0 0.00 0.00 0.00 69 1016.1
20260904172548 85 148 4.0 8.0 0.00 0.00 0.00 69 1016.1
20260904172047 85 193 3.0 8.0 0.00 0.00 0.00 70 1016.2
20260904171614 85 147 2.0 9.0 0.00 0.00 0.00 70 1016.2
20260904171046 85 245 3.0 10.0 0.00 0.00 0.00 71 1016.1
20260904170548 85 230 3.0 10.0 0.00 0.00 0.00 72 1016.2
20260904170105 84 169 5.0 9.0 0.00 0.00 0.00 73 1016.3
20260904165547 84 226 3.0 9.0 0.00 0.00 0.00 73 1016.3
20260904165047 84 206 4.0 9.0 0.00 0.00 0.00 74 1016.4
20260904164619 84 190 4.0 9.0 0.00 0.00 0.00 74 1016.3
20260904164046 83 152 4.0 9.0 0.00 0.00 0.00 75 1016.4
20260904163548 83 200 3.0 9.0 0.00 0.00 0.00 75 1016.3
20260904163057 83 236 4.0 9.0 0.00 0.00 0.00 77 1016.4
20260904162548 83 142 3.0 7.0 0.00 0.00 0.00 79 1016.3
20260904162048 82 167 2.0 7.0 0.00 0.00 0.00 79 1016.4
20260904161600 82 180 2.0 8.0 0.00 0.00 0.00 80 1016.4
20260904161048 82 157 3.0 9.0 0.00 0.00 0.00 80 1016.4
20260904160547 81 168 3.0 9.0 0.00 0.00 0.00 81 1016.4
20260904155547 81 119 3.0 5.0 0.00 0.00 0.00 82 1016.5
20260904155046 81 202 2.0 5.0 0.00 0.00 0.00 84 1016.5
20260904154601 81 171 2.0 5.0 0.00 0.00 0.00 84 1016.5
20260904154046 80 184 2.0 5.0 0.00 0.00 0.00 85 1016.6
20260904153551 80 142 0.0 3.0 0.00 0.00 0.00 85 1016.5
20260904153112 80 0 0.0 4.0 0.00 0.00 0.00 86 1016.7
20260904152547 80 0 1.0 5.0 0.00 0.00 0.00 86 1016.6
20260904152047 79 144 1.0 5.0 0.00 0.00 0.00 86 1016.5
20260904151602 79 130 0.0 4.0 0.00 0.00 0.00 87 1016.5
20260904151046 79 145 1.0 4.0 0.00 0.00 0.00 87 1016.5
20260904150546 79 158 2.0 5.0 0.00 0.00 0.00 88 1016.5
20260904145546 79 153 1.0 5.0 0.00 0.00 0.00 89 1016.4
20260904145049 79 0 0.0 4.0 0.00 0.00 0.00 89 1016.5
20260904144603 78 0 1.0 8.0 0.00 0.00 0.00 89 1016.5
20260904144049 78 191 0.0 8.0 0.00 0.00 0.00 90 1016.4
20260904143547 78 126 1.0 4.0 0.00 0.00 0.00 90 1016.3
20260904143053 78 140 0.0 4.0 0.00 0.00 0.00 91 1016.2
20260904142550 78 0 1.0 5.0 0.00 0.00 0.00 91 1016.1
20260904142049 78 0 1.0 5.0 0.00 0.00 0.00 91 1016.2
20260904141601 78 167 1.0 3.0 0.00 0.00 0.00 91 1016.2
20260904141050 78 138 1.0 5.0 0.00 0.00 0.00 91 1016.3
20260904140551 78 0 1.0 5.0 0.00 0.00 0.00 91 1016.3
20260904140104 78 46 2.0 5.0 0.00 0.00 0.00 91 1016.2
20260904135550 78 178 1.0 6.0 0.00 0.00 0.00 91 1016.0
20260904135047 77 153 2.0 6.0 0.00 0.00 0.00 91 1016.0
20260904134600 77 115 1.0 5.0 0.00 0.00 0.00 91 1016.0
20260904134049 77 123 1.0 5.0 0.00 0.00 0.00 91 1015.9
20260904133549 77 106 2.0 5.0 0.00 0.00 0.00 91 1015.9
20260904133055 77 180 0.0 3.0 0.00 0.00 0.00 91 1015.8
20260904132546 77 0 0.0 6.0 0.00 0.00 0.00 91 1015.7
20260904132048 77 141 1.0 7.0 0.00 0.00 0.00 90 1015.7
20260904131609 77 134 1.0 7.0 0.00 0.00 0.00 90 1015.5
20260904131047 77 161 3.0 7.0 0.00 0.00 0.00 90 1015.6
20260904130547 77 186 2.0 7.0 0.00 0.00 0.00 90 1015.4
20260904130104 77 157 2.0 5.0 0.00 0.00 0.00 90 1015.5
20260904125548 77 165 1.0 6.0 0.00 0.00 0.00 90 1015.5
20260904125047 77 146 0.0 6.0 0.00 0.00 0.00 90 1015.6
20260904124553 77 0 2.0 6.0 0.00 0.00 0.00 90 1015.6
20260904124046 77 140 1.0 6.0 0.00 0.00 0.00 89 1015.5
20260904123550 77 126 2.0 6.0 0.00 0.00 0.00 89 1015.3
20260904123100 77 132 1.0 6.0 0.00 0.00 0.00 89 1015.2
20260904122550 77 155 2.0 7.0 0.00 0.00 0.00 89 1015.2
20260904122046 77 138 1.0 7.0 0.00 0.00 0.00 89 1015.0
20260904121558 77 117 2.0 8.0 0.00 0.00 0.00 89 1014.9
20260904121049 77 150 3.0 8.0 0.00 0.00 0.00 89 1014.7
20260904120549 77 136 2.0 7.0 0.00 0.00 0.00 89 1014.7
20260904120056 77 141 3.0 7.0 0.00 0.00 0.00 89 1014.7
20260904115547 77 142 2.0 7.0 0.00 0.00 0.00 88 1014.7
20260904115048 77 156 1.0 7.0 0.00 0.00 0.00 88 1014.7
20260904114603 77 145 2.0 7.0 0.00 0.00 0.00 88 1014.6
20260904114047 77 151 2.0 7.0 0.00 0.00 0.00 88 1014.6
20260904113546 77 161 2.0 7.0 0.00 0.00 0.00 88 1014.4
20260904113056 77 202 3.0 6.0 0.00 0.00 0.00 88 1014.4
20260904112549 77 123 2.0 6.0 0.00 0.00 0.00 88 1014.4
20260904112050 77 180 2.0 6.0 0.00 0.00 0.00 88 1014.3
20260904111600 77 186 1.0 7.0 0.00 0.00 0.00 88 1014.3
20260904111050 77 199 2.0 7.0 0.00 0.00 0.00 88 1014.2
20260904110549 77 186 3.0 7.0 0.00 0.00 0.00 88 1014.2
20260904110101 77 161 3.0 7.0 0.00 0.00 0.00 88 1014.2
20260904105547 77 137 2.0 6.0 0.00 0.00 0.00 88 1014.2
20260904105046 77 165 1.0 6.0 0.00 0.00 0.00 88 1014.3
20260904104600 77 161 2.0 6.0 0.00 0.00 0.00 88 1014.3
20260904104046 77 170 2.0 6.0 0.00 0.00 0.00 88 1014.2
20260904103546 77 181 2.0 6.0 0.00 0.00 0.00 88 1014.2
20260904103056 77 153 2.0 7.0 0.00 0.00 0.00 88 1014.2
20260904102551 77 173 2.0 7.0 0.00 0.00 0.00 88 1014.4
20260904102051 77 0 2.0 7.0 0.00 0.00 0.00 88 1014.2
20260904101604 77 167 2.0 7.0 0.00 0.00 0.00 88 1014.2
20260904101049 77 126 3.0 7.0 0.00 0.00 0.00 88 1014.1
20260904100547 77 146 2.0 7.0 0.00 0.00 0.00 88 1014.1
20260904095550 77 165 1.0 5.0 0.00 0.00 0.00 87 1014.0
20260904095047 77 176 2.0 5.0 0.00 0.00 0.00 87 1013.8
20260904094604 78 141 2.0 5.0 0.00 0.00 0.00 87 1014.0
20260904094046 78 148 2.0 5.0 0.00 0.00 0.00 87 1014.0
20260904093546 78 146 1.0 7.0 0.00 0.00 0.00 87 1014.0
20260904093113 78 175 2.0 7.0 0.00 0.00 0.00 87 1014.0
20260904092546 78 154 2.0 4.0 0.00 0.00 0.00 87 1014.0
20260904092050 78 177 2.0 7.0 0.00 0.00 0.00 87 1014.0
20260904091611 78 157 1.0 7.0 0.00 0.00 0.00 87 1014.1
20260904091051 78 175 2.0 7.0 0.00 0.00 0.00 86 1013.9
20260904090548 78 194 2.0 5.0 0.00 0.00 0.00 86 1013.9
20260904085546 78 190 2.0 7.0 0.00 0.00 0.00 86 1014.0
20260904085046 78 181 3.0 6.0 0.00 0.00 0.00 86 1013.8
20260904084600 78 152 2.0 6.0 0.00 0.00 0.00 86 1014.0
20260904084046 78 129 2.0 6.0 0.00 0.00 0.00 86 1014.0
20260904083546 78 186 2.0 8.0 0.00 0.00 0.00 85 1013.9
20260904083105 78 178 3.0 8.0 0.00 0.00 0.00 85 1013.9
20260904082547 78 182 2.0 7.0 0.00 0.00 0.00 85 1014.0
20260904082046 78 181 2.0 4.0 0.00 0.00 0.00 85 1014.0
20260904081554 78 170 1.0 8.0 0.00 0.00 0.00 85 1014.1
20260904081049 78 171 3.0 8.0 0.00 0.00 0.00 84 1014.0
20260904080546 78 153 2.0 7.0 0.00 0.00 0.00 84 1014.0
20260904075548 78 171 4.0 7.0 0.00 0.00 0.00 84 1014.2
20260904075047 79 169 2.0 6.0 0.00 0.00 0.00 84 1014.3
20260904074559 79 211 3.0 6.0 0.00 0.00 0.00 84 1014.2
20260904074047 79 173 3.0 10.0 0.00 0.00 0.00 83 1014.1
20260904073548 79 158 3.0 10.0 0.00 0.00 0.00 83 1014.3
20260904073110 79 176 4.0 10.0 0.00 0.00 0.00 83 1014.3
20260904072547 79 160 4.0 9.0 0.00 0.00 0.00 83 1014.3
20260904072049 79 190 4.0 8.0 0.00 0.00 0.00 83 1014.4
20260904071554 79 169 3.0 8.0 0.00 0.00 0.00 83 1014.4
20260904071046 79 151 3.0 8.0 0.00 0.00 0.00 83 1014.5
20260904070547 79 163 4.0 10.0 0.00 0.00 0.00 83 1014.5
20260904065546 79 167 3.0 10.0 0.00 0.00 0.00 82 1014.5
20260904065046 79 148 4.0 10.0 0.00 0.00 0.00 82 1014.6
20260904064601 79 136 4.0 11.0 0.00 0.00 0.00 82 1014.6
20260904064050 79 194 4.0 14.0 0.00 0.00 0.00 82 1014.6
20260904063550 79 167 4.0 14.0 0.00 0.00 0.00 82 1014.6
20260904063105 79 173 5.0 13.0 0.00 0.00 0.00 82 1014.6
20260904062546 79 149 5.0 13.0 0.00 0.00 0.00 81 1014.5
20260904062049 79 174 5.0 12.0 0.00 0.00 0.00 81 1014.7
20260904061636 79 160 5.0 12.0 0.00 0.00 0.00 81 1014.7
20260904061046 79 129 5.0 10.0 0.00 0.00 0.00 81 1014.7
20260904060547 79 194 3.0 9.0 0.00 0.00 0.00 80 1014.7
20260904060104 79 165 5.0 9.0 0.00 0.00 0.00 80 1014.8
20260904055546 79 186 3.0 9.0 0.00 0.00 0.00 79 1014.9
20260904055047 79 142 3.0 8.0 0.00 0.00 0.00 79 1014.7
20260904054634 79 160 3.0 8.0 0.00 0.00 0.00 78 1014.6
20260904054046 80 187 3.0 8.0 0.00 0.00 0.00 78 1014.6
20260904053548 80 154 4.0 8.0 0.00 0.00 0.00 78 1014.6
20260904053054 80 135 3.0 11.0 0.00 0.00 0.00 78 1014.5
20260904052549 80 117 4.0 11.0 0.00 0.00 0.00 77 1014.5
20260904052047 80 150 4.0 11.0 0.00 0.00 0.00 77 1014.4
20260904051555 80 129 3.0 12.0 0.00 0.00 0.00 76 1014.4
20260904051048 80 151 6.0 13.0 0.00 0.00 0.00 76 1014.4
20260904050546 80 142 6.0 13.0 0.00 0.00 0.00 75 1014.4
20260904050054 80 156 5.0 13.0 0.00 0.00 0.00 75 1014.4
20260904045547 81 170 4.0 12.0 0.00 0.00 0.00 75 1014.4
20260904045047 81 139 4.0 12.0 0.00 0.00 0.00 74 1014.4
20260904044559 81 138 4.0 15.0 0.00 0.00 0.00 74 1014.3
20260904044046 81 144 7.0 15.0 0.00 0.00 0.00 74 1014.4
20260904043549 81 202 6.0 13.0 0.00 0.00 0.00 74 1014.3
20260904043103 81 150 4.0 10.0 0.00 0.00 0.00 73 1014.3
20260904042550 81 161 3.0 10.0 0.00 0.00 0.00 73 1014.3
20260904042047 81 153 4.0 10.0 0.00 0.00 0.00 73 1014.4
20260904041559 81 156 4.0 9.0 0.00 0.00 0.00 73 1014.4
20260904041046 81 131 2.0 8.0 0.00 0.00 0.00 73 1014.4
20260904040546 81 150 3.0 8.0 0.00 0.00 0.00 73 1014.4
20260904040055 81 124 2.0 7.0 0.00 0.00 0.00 72 1014.4
20260904035547 81 167 3.0 7.0 0.00 0.00 0.00 72 1014.3
20260904035046 82 140 3.0 7.0 0.00 0.00 0.00 72 1014.2
20260904034601 82 126 3.0 7.0 0.00 0.00 0.00 72 1014.1
20260904034051 82 130 2.0 7.0 0.00 0.00 0.00 71 1014.1
20260904033550 82 108 2.0 8.0 0.00 0.00 0.00 71 1014.1
20260904033059 82 132 3.0 9.0 0.00 0.00 0.00 71 1014.0
20260904032549 82 163 2.0 9.0 0.00 0.00 0.00 71 1014.0
20260904032048 82 129 3.0 9.0 0.00 0.00 0.00 71 1013.9
20260904031607 82 135 4.0 9.0 0.00 0.00 0.00 71 1013.9
20260904031142 83 45 3.0 10.0 0.00 0.00 0.00 70 1013.8
20260904030547 83 163 4.0 10.0 0.00 0.00 0.00 70 1013.8
20260904030117 83 142 3.0 10.0 0.00 0.00 0.00 70 1013.8
20260904025547 83 135 2.0 8.0 0.00 0.00 0.00 70 1013.9
20260904025046 83 115 2.0 9.0 0.00 0.00 0.00 70 1013.8
20260904024603 83 218 3.0 12.0 0.00 0.00 0.00 69 1013.7
20260904024046 83 143 2.0 12.0 0.00 0.00 0.00 69 1013.6
20260904023549 83 144 3.0 13.0 0.00 0.00 0.00 69 1013.5
20260904023105 83 86 2.0 13.0 0.00 0.00 0.00 69 1013.5
20260904022548 83 103 4.0 8.0 0.00 0.00 0.00 69 1013.4
20260904022047 83 148 2.0 10.0 0.00 0.00 0.00 69 1013.3
20260904021558 84 161 3.0 10.0 0.00 0.00 0.00 68 1013.2
20260904021048 84 153 2.0 9.0 0.00 0.00 0.00 68 1013.1
20260904020548 84 181 2.0 9.0 0.00 0.00 0.00 68 1013.0
20260904020105 84 111 1.0 7.0 0.00 0.00 0.00 68 1013.0
20260904015548 84 174 2.0 7.0 0.00 0.00 0.00 68 1013.0
20260904015046 84 129 1.0 9.0 0.00 0.00 0.00 67 1013.0
20260904014622 84 157 3.0 9.0 0.00 0.00 0.00 67 1013.0
20260904014047 84 0 2.0 9.0 0.00 0.00 0.00 67 1013.0
20260904013548 84 159 2.0 9.0 0.00 0.00 0.00 67 1012.9
20260904013121 84 136 1.0 8.0 0.00 0.00 0.00 66 1012.9
20260904012550 85 98 1.0 8.0 0.00 0.00 0.00 66 1012.9
20260904012050 85 169 2.0 9.0 0.00 0.00 0.00 66 1012.8
20260904011556 85 165 3.0 9.0 0.00 0.00 0.00 65 1012.8
20260904011046 85 49 2.0 9.0 0.00 0.00 0.00 65 1012.5